Simultaneous Nadir Overpasses (SNOs) Predictions

Prediction of SNOs between NOAA-19 and TERRA Satellite Orbit:

Table of predicted SNOs for the next 14.0 days since TLE Epoch: 11/9/2018
Index Date (NOAA-19) Time (NOAA-19) Lat,Lon (NOAA-19) SZA (NOAA-19 ) Date (TERRA) Time (TERRA) Lat,Lon (TERRA) SZA (TERRA ) Distance(km) Time Diff (sec)
1 11/10/2018 23:36:08 -77.70, 24.57 84.13 11/10/2018 23:36:38 -77.70, 24.62 84.12 1.48 30
2 11/11/2018 00:27:07 77.67,-168.01 95.87 11/11/2018 00:26:05 77.64,-167.97 95.82 3.18 62
3 11/13/2018 05:09:39 77.72, 121.19 96.49 11/13/2018 05:10:19 77.72, 121.31 96.51 2.88 40
4 11/13/2018 06:00:38 -77.65, -71.22 83.54 11/13/2018 05:59:48 -77.64, -71.38 83.58 3.92 50
5 11/15/2018 10:43:10 -77.72,-142.14 82.94 11/15/2018 10:44:02 -77.73,-142.08 82.91 1.72 52
6 11/15/2018 11:34:10 77.69, 25.30 97.06 11/15/2018 11:33:29 77.67, 25.31 97.03 1.77 41
7 11/17/2018 16:16:42 77.74, -45.52 97.63 11/17/2018 16:17:44 77.71, -45.58 97.62 2.97 62
8 11/17/2018 17:07:40 -77.68, 122.05 82.40 11/17/2018 17:07:12 -77.69, 121.95 82.41 2.62 28
9 11/19/2018 21:50:14 -77.83, 50.68 81.81 11/19/2018 21:51:27 -77.74, 51.09 81.84 14.19 73
10 11/19/2018 22:41:13 77.71,-141.43 98.14 11/19/2018 22:40:53 77.72,-141.35 98.15 2.07 20
11 11/22/2018 03:23:57 78.22, 145.10 98.90 11/22/2018 03:25:00 78.12, 149.41 99.14 98.87 63
12 11/22/2018 04:14:42 -77.71, -44.72 81.37 11/22/2018 04:14:37 -77.70, -44.85 81.40 3.36 5




NCC Satellite Simultaneous Nadir Overpasses (SNOs) Prediction Service
